Weather History for KPWM - July, 2013

Change the Weather History Date:

Monday, July 1, 2013

  Actual Average Record
Temperature  
Mean Temperature 71 °F 68 °F  
Max Temperature 78 °F 77 °F 93 °F (1971)
Min Temperature 64 °F 58 °F 45 °F (1943)
Degree Days  
Heating Degree Days 0 1  
Month to date heating degree days 0 1  
Since 1 June heating degree days 81 107  
Since 1 July heating degree days 0 1  
Cooling Degree Days 6 4  
Month to date cooling degree days 6 4  
Year to date cooling degree days 104 68  
Since 1 June cooling degree days 89 61  
Growing Degree Days 21 (Base 50)    
Moisture  
Dew Point 67 °F    
Average Humidity 87    
Maximum Humidity 100    
Minimum Humidity 74    
Precipitation  
Precipitation 1.17 in 0.11 in 2.38 in (1979)
Month to date precipitation 1.17 0.11  
Year to date precipitation 24.29 23.10  
Snow  
Snow 0.00 in 0.00 in 0.00 in (2002)
Month to date snowfall 0.0 0.0  
Since 1 June snowfall 0.0 0.0  
Since 1 July snowfall 0.0 0.0  
Snow Depth 0.00 in    
Sea Level Pressure  
Sea Level Pressure 30.02 in    
Wind  
Wind Speed 4 mph (ESE)    
Max Wind Speed 10 mph    
Max Gust Speed 12 mph    
Visibility 5 miles    
Events Rain    
T = Trace of Precipitation, MM = Missing Value Source: NWS Daily Summary

Daily Weather History Graph

Daily Weather History Graph

Search for Another Location

Airport or City:

Trip Planner

Search our weather history database for the weather conditions in past years. The results will help you decide how hot, cold, wet, or windy it might be!

Date:

Astronomy

Jul. 01, 2013 Rise Set
Actual Time 5:03 AM EDT 8:26 PM EDT
Civil Twilight 4:27 AM EDT 9:02 PM EDT
Nautical Twilight 3:41 AM EDT 9:48 PM EDT
Astronomical Twilight 2:42 AM EDT 10:46 PM EDT
Moon 12:39 AM EDT (7/1) 2:32 PM EDT (7/1)
Length of Visible Light 16h 34m
Length of Day
15h 22m
Waning Crescent, 35% of the Moon is Illuminated
Jul 1
Waning Crescent
Jul 8
New
Jul 15
First Quarter
Jul 22
Full
Jul 29
Last Quarter

Hourly Weather History & Observations

Time (EDT) Temp. Dew Point Humidity Pressure Visibility Wind Dir Wind Speed Gust Speed Precip Events Conditions
12:51 AM 64.9 °F 63.0 °F 93% 29.94 in 9.0 mi Calm Calm - N/A   Mostly Cloudy
1:26 AM 64.9 °F 62.1 °F 90% 29.95 in 9.0 mi SSE 3.5 mph - N/A   Scattered Clouds
1:51 AM 64.9 °F 62.1 °F 90% 29.95 in 8.0 mi SSE 4.6 mph - N/A   Mostly Cloudy
2:21 AM 64.9 °F 62.1 °F 90% 29.94 in 8.0 mi South 3.5 mph - N/A   Scattered Clouds
2:51 AM 64.9 °F 63.0 °F 93% 29.94 in 8.0 mi SSE 4.6 mph - N/A   Clear
3:51 AM 64.9 °F 64.0 °F 97% 29.94 in 8.0 mi Calm Calm - N/A   Clear
4:51 AM 64.9 °F 63.0 °F 93% 29.94 in 7.0 mi Calm Calm - N/A   Scattered Clouds
5:51 AM 64.9 °F 64.0 °F 97% 29.96 in 6.0 mi Calm Calm - N/A   Clear
6:51 AM 68.0 °F 64.0 °F 87% 29.98 in 8.0 mi North - - N/A   Clear
7:51 AM 70.0 °F 66.0 °F 87% 29.99 in 10.0 mi Calm Calm - N/A   Clear
8:44 AM 73.9 °F 68.0 °F 82% 30.00 in 10.0 mi East 3.5 mph - N/A   Mostly Cloudy
8:51 AM 73.9 °F 68.0 °F 82% 30.00 in 10.0 mi East 3.5 mph - N/A   Mostly Cloudy
9:11 AM 75.0 °F 68.0 °F 79% 30.00 in 10.0 mi ESE 3.5 mph - N/A   Scattered Clouds
9:44 AM 75.9 °F 69.1 °F 79% 30.00 in 10.0 mi Calm Calm - N/A   Mostly Cloudy
9:51 AM 77.0 °F 69.1 °F 76% 30.01 in 10.0 mi Calm Calm - N/A   Mostly Cloudy
10:51 AM 75.9 °F 69.1 °F 79% 30.02 in 10.0 mi South 6.9 mph - N/A   Mostly Cloudy
11:51 AM 78.1 °F 70.0 °F 76% 30.02 in 10.0 mi SE 9.2 mph - N/A   Scattered Clouds
12:51 PM 75.0 °F 69.1 °F 82% 30.03 in 10.0 mi SSE 6.9 mph - N/A   Overcast
12:57 PM 75.0 °F 70.0 °F 84% 30.03 in 2.0 mi South 4.6 mph - 0.00 in Rain Light Rain
1:10 PM 73.0 °F 70.0 °F 90% 30.03 in 1.0 mi Calm Calm - 0.10 in Rain Heavy Rain
1:19 PM 73.0 °F 70.0 °F 90% 30.04 in 0.8 mi Calm Calm - 0.18 in Rain Heavy Rain
1:31 PM 71.1 °F 70.0 °F 96% 30.03 in 1.0 mi East 5.8 mph - 0.38 in Rain Heavy Rain
1:42 PM 72.0 °F 71.1 °F 97% 30.03 in 2.0 mi East 4.6 mph - 0.47 in Rain Light Rain
1:51 PM 71.1 °F 70.0 °F 96% 30.04 in 2.5 mi ESE 6.9 mph - 0.48 in Rain Light Rain
2:04 PM 71.1 °F 70.0 °F 96% 30.04 in 4.0 mi East 4.6 mph - 0.02 in Rain Light Rain
2:12 PM 71.1 °F 70.0 °F 96% 30.04 in 2.5 mi ESE 6.9 mph - 0.02 in Rain Light Rain
2:25 PM 71.1 °F 70.0 °F 96% 30.04 in 2.5 mi East 4.6 mph - 0.03 in Rain Rain
2:51 PM 71.1 °F 70.0 °F 96% 30.05 in 2.5 mi East 3.5 mph - 0.04 in Rain Light Rain
3:51 PM 70.0 °F 69.1 °F 97% 30.05 in 2.5 mi ESE 5.8 mph - 0.07 in Rain Rain
4:03 PM 70.0 °F 69.1 °F 97% 30.04 in 2.5 mi SSE 5.8 mph - 0.02 in Rain Light Rain
4:11 PM 70.0 °F 69.1 °F 97% 30.04 in 2.5 mi South 4.6 mph - 0.02 in Rain Light Rain
4:51 PM 71.1 °F 69.1 °F 93% 30.04 in 2.5 mi ESE 5.8 mph - 0.04 in Rain Light Rain
5:51 PM 71.1 °F 69.1 °F 93% 30.05 in 2.5 mi ESE 5.8 mph - 0.00 in   Overcast
6:51 PM 70.0 °F 69.1 °F 97% 30.06 in 1.5 mi South 3.5 mph - 0.01 in Rain Light Rain
7:51 PM 66.9 °F 66.9 °F 100% 30.06 in 1.5 mi NE 5.8 mph - 0.00 in Rain Light Rain
7:58 PM 66.9 °F 66.0 °F 97% 30.05 in 1.0 mi NE 5.8 mph - 0.00 in Rain Light Rain
8:51 PM 64.9 °F 64.9 °F 100% 30.07 in 1.0 mi Calm Calm - 0.01 in   Overcast
9:51 PM 64.9 °F 64.0 °F 97% 30.09 in 1.0 mi East 5.8 mph - 0.00 in   Overcast
10:51 PM 64.0 °F 64.0 °F 100% 30.10 in 1.0 mi ENE 4.6 mph - 0.01 in Rain Light Rain
11:15 PM 64.9 °F 64.0 °F 97% 30.09 in 1.0 mi East 5.8 mph - 0.04 in Rain Rain
11:24 PM 64.9 °F 64.9 °F 100% 30.09 in 1.5 mi Calm Calm - 0.07 in Rain Rain
11:51 PM 64.9 °F 64.9 °F 100% 30.09 in 1.5 mi NE 4.6 mph - 0.31 in Rain Heavy Rain
11:55 PM 64.9 °F 64.9 °F 100% 30.09 in 3.0 mi ENE 3.5 mph - 0.02 in Rain Rain